SHIJIAN-29A (SJ-29A)

Last updated on Tue Sep 22 2026 00:03:16 GMT+0000 (Coordinated Universal Time)

1 67302U 25315A 26264.59953250 -.00000072 00000+0 00000+0 0 9990 2 67302 3.6354 92.7769 0006204 73.9274 123.0693 1.00269763 2588
UTC large
Height (km)
Speed (km/s)
/
Latitude / Longitude
Inclination (degrees)
Orbital Period (minutes)
Azimuth
Elevation
Range (km)
Doppler Factor

Next 0 passes for location: London (51.5072 / 0.1276)

No passes found over London.
SHIJIAN-29A (SJ-29A)